Location: Armstrong Village
(14.3346°N, 120.9854°E)
Time: 12:04:07
(UTC+00:00)

Cosmos 1821 Rocket - Pass Details

Date: 13 April 2026
Orbit: 945 x 1003 km, 82.9° (Epoch: 12 May)

Event Time Altitude Azimuth Distance (km) Brightness Sun altitude
Exits shadow 12:27:17 14° 17° (NNE) 2,436 6.1 -33.0°
Drops below altitude 10° 12:28:03 10° 15° (NNE) 2,713 6.4 -33.2°
Sets 12:30:37 0° 11° (NNE) 3,670 7.1 -33.8°
